This is the latest recevied weather packets stored in our database for station/object KB3KAV. If no packets are shown the sender has not sent any weather packets the latest 10 day(s).
| Time | Temp. | Humidity | Pressure | Rain* | Wind** | Luminosity | Snow |
|---|---|---|---|---|---|---|---|
| 1778017326 | 24.44° C | 38% | 1035.3 hPa | 0 mm | - | 53 W/m² | - |
| 1778016720 | 24.44° C | 40% | 1035.4 hPa | 0 mm | - | 75 W/m² | - |
| 1778016119 | 24.44° C | 40% | 1035.2 hPa | 0 mm | - | 27 W/m² | - |
| 1778015519 | 24.44° C | 37% | 1035.3 hPa | 0 mm | - | 28 W/m² | - |
| 1778014919 | 25° C | 36% | 1035.4 hPa | 0 mm | - | 31 W/m² | - |
| 1778014314 | 25.56° C | 35% | 1035.1 hPa | 0 mm | - | 21 W/m² | - |
| 1778013715 | 25.56° C | 35% | 1035.1 hPa | 0 mm | - | 62 W/m² | - |
| 1778013114 | 25.56° C | 36% | 1035 hPa | 0 mm | - | 79 W/m² | - |
| 1778012512 | 25.56° C | 35% | 1035 hPa | 0 mm | - | 62 W/m² | - |
| 1778011913 | 25.56° C | 34% | 1035.3 hPa | 0 mm | - | 83 W/m² | - |
| 1778011313 | 25.56° C | 34% | 1034.9 hPa | 0 mm | - | 77 W/m² | - |
| 1778010712 | 26.11° C | 34% | 1035.4 hPa | 0 mm | - | 159 W/m² | - |
| 1778010111 | 26.67° C | 34% | 1035 hPa | 0 mm | - | 278 W/m² | - |
| 1778009511 | 26.11° C | 36% | 1035.3 hPa | 0 mm | - | 202 W/m² | - |
| 1778008906 | 26.11° C | 34% | 1035.3 hPa | 0 mm | - | 626 W/m² | - |
| 1778008303 | 26.67° C | 36% | 1035.4 hPa | 0 mm | - | 668 W/m² | - |
| 1778007698 | 26.67° C | 36% | 1035.6 hPa | 0 mm | - | 675 W/m² | - |
| 1778007097 | 26.11° C | 37% | 1035.9 hPa | 0 mm | - | 321 W/m² | - |
| 1778006496 | 26.11° C | 37% | 1036.1 hPa | 0 mm | - | 760 W/m² | - |
| 1778005891 | 25.56° C | 37% | 1036.1 hPa | 0 mm | - | 681 W/m² | - |
| 1778005290 | 26.11° C | 38% | 1036.2 hPa | 0 mm | - | 291 W/m² | - |
| 1778004690 | 26.11° C | 39% | 1036.2 hPa | 0 mm | - | 702 W/m² | - |
| 1778004089 | 25.56° C | 38% | 1036.2 hPa | 0 mm | - | 661 W/m² | - |
| 1778003488 | 26.11° C | 38% | 1036.7 hPa | 0 mm | - | 672 W/m² | - |
| 1778002886 | 26.11° C | 39% | 1036.5 hPa | 0 mm | - | 163 W/m² | - |
* Rain latest hour (hover to see other rain measurements)
** Current wind speed in m/s (hover to see current wind gust speed)